Wind_Speed
25 24 22 22 21 20 20 20 19 19 18 18 19 20 20 19 19 19 19 19 19 19 19 20 20 20 20 21 21 22 23 24 25 25 26 27 28 29 30 31 32 33 33 34
25 23 23 22 21 21 20 20 20 19 18 19 19 19 19 19 19 19 19 20 20 20 20 20 21 21 22 22 23 24 24 25 25 26 27 27 28 29 30 31 32 33 34 35
26 24 23 22 22 21 20 20 20 19 19 19 19 19 19 19 19 20 20 20 21 21 21 21 22 23 24 24 25 25 25 26 26 26 27 28 29 30 31 31 32 33 34 36
25 24 23 23 22 22 21 21 20 20 19 18 19 19 19 19 20 20 21 21 21 22 22 23 24 24 25 26 26 26 26 26 27 27 28 29 30 30 31 32 33 34 36 37
25 24 24 23 23 23 22 21 20 19 19 19 19 20 19 19 20 21 21 22 22 23 23 24 25 26 27 27 27 26 26 26 27 27 28 29 30 31 32 33 35 36 38 39
27 25 24 24 23 22 21 21 20 20 20 19 19 20 19 19 21 22 22 23 23 24 25 26 26 27 28 27 27 27 27 27 27 28 29 31 32 33 34 35 37 38 40 42
26 25 24 24 23 22 21 21 21 21 20 20 19 20 20 20 22 23 24 24 24 25 26 27 27 28 28 28 28 28 28 29 30 31 32 33 34 35 36 38 39 41 43 45
26 25 25 24 23 22 21 21 22 22 22 21 20 21 21 21 23 24 25 25 26 26 27 27 28 28 28 29 29 29 30 31 32 34 35 36 37 38 39 40 42 44 46 49
26 25 25 24 23 23 22 22 22 23 23 22 21 21 21 22 24 25 26 26 27 27 28 28 29 29 30 30 31 31 32 34 35 36 37 38 39 40 42 44 46 48 50 52
25 24 24 23 24 23 23 22 23 24 24 23 22 21 22 23 25 26 27 27 28 29 29 30 30 31 32 32 33 34 35 36 37 38 39 41 42 44 46 48 50 53 55 57
24 24 24 24 23 23 24 24 24 25 25 25 24 22 23 25 26 27 28 28 29 30 31 32 33 33 34 35 36 37 38 39 40 41 42 44 46 48 50 52 54 57 59 62
25 25 25 24 24 25 25 25 25 26 26 26 26 24 25 27 28 29 30 30 32 33 34 34 35 36 37 38 38 39 40 41 42 44 46 47 49 51 54 56 59 61 64 66
27 27 26 26 26 26 26 26 26 27 27 27 27 26 27 29 31 32 33 33 34 35 36 37 38 39 39 40 41 42 43 44 46 47 49 51 53 55 57 60 63 65 68 71
29 29 27 27 27 27 27 26 27 28 29 30 28 28 29 32 34 34 35 36 36 37 38 39 40 40 41 42 43 44 46 47 49 51 52 54 56 59 61 64 67 69 72 75
30 30 28 28 29 29 29 29 29 30 30 33 31 31 31 35 36 36 37 37 38 39 39 40 41 42 43 44 45 46 48 50 52 53 55 57 60 62 65 68 70 73 75 78
31 31 30 31 31 32 32 30 30 31 32 34 35 33 33 36 37 38 39 39 39 40 41 42 42 43 44 45 47 48 50 52 54 56 58 61 63 66 68 71 73 76 78 80
33 33 33 33 32 35 34 30 31 33 34 35 36 36 37 37 38 39 39 40 41 42 42 43 44 45 46 47 49 50 52 54 57 59 61 64 66 69 71 74 76 78 80 81
33 33 35 35 35 37 34 32 33 35 35 36 38 39 39 39 39 40 40 41 41 42 43 44 45 46 47 49 51 52 55 57 59 61 64 67 69 71 74 76 78 80 81 81
35 35 37 38 38 39 36 34 34 36 36 36 38 39 39 40 41 41 41 42 43 43 44 45 46 47 49 51 52 54 57 59 62 64 66 69 72 74 76 78 79 80 80 79
36 37 38 39 40 41 38 36 36 38 38 36 38 39 40 40 41 41 42 42 43 44 45 46 47 49 50 52 54 56 59 61 64 66 69 71 74 76 78 79 80 80 79 76
36 37 39 40 42 42 40 39 39 40 40 40 39 39 40 40 41 41 42 42 43 44 46 47 48 50 52 54 56 58 61 64 66 68 70 73 75 77 78 79 79 78 76 73
37 38 39 40 42 42 41 41 41 41 41 41 41 41 41 41 41 41 42 43 44 46 47 48 49 51 54 56 58 61 63 66 68 70 72 74 76 78 79 78 77 75 73 69
38 39 40 40 41 41 42 42 42 42 42 42 42 42 41 41 40 41 42 43 45 47 48 49 51 53 56 58 61 63 65 68 69 71 74 75 77 77 78 76 74 72 69 65
39 39 40 41 41 41 42 42 43 43 43 43 43 42 42 42 41 42 44 45 46 48 50 51 53 55 57 60 63 65 68 69 71 73 75 76 77 77 75 74 71 68 65 61
40 40 41 41 41 42 42 43 43 43 43 43 43 43 43 43 43 44 45 47 48 50 51 53 55 57 60 62 64 67 69 71 73 75 76 77 76 76 73 70 67 64 60 58
38 39 40 40 40 41 42 43 43 43 43 43 44 44 44 44 45 46 47 49 50 52 53 55 57 60 62 64 67 69 71 73 75 75 76 76 75 73 71 67 63 59 57 54
Wind_Direction
242 246 250 255 260 264 268 269 271 274 276 278 278 278 280 282 283 285 287 288 290 292 292 293 293 293 293 293 293 293 293 292 291 290 289 287 286 286 285 285 285 285 284 283
240 244 249 255 259 263 266 267 270 272 275 276 277 277 279 281 283 285 287 289 290 292 292 292 292 292 294 294 295 294 294 293 292 291 290 290 289 289 289 288 287 287 286 286
240 243 249 254 257 260 263 266 269 272 274 275 275 275 278 280 282 284 286 288 289 290 291 291 292 293 295 295 295 294 294 293 292 291 291 290 290 290 290 290 289 289 289 289
241 243 247 251 255 258 262 264 267 270 273 273 274 274 277 280 282 284 286 287 288 290 291 291 292 293 295 295 295 294 295 294 292 292 291 291 291 291 291 291 290 290 290 290
241 243 247 251 254 257 260 263 266 269 271 272 273 274 275 278 282 283 285 286 288 289 290 290 291 293 294 294 294 294 294 294 293 293 292 292 292 292 291 291 291 291 291 291
242 243 247 251 253 255 258 262 266 269 271 271 272 274 276 278 280 282 284 286 287 288 289 290 291 292 293 293 293 293 294 293 293 293 293 293 293 293 293 292 292 292 293 293
240 243 246 249 251 253 258 263 268 270 271 272 272 273 277 279 280 282 284 286 287 288 289 290 290 291 292 292 293 293 293 293 293 293 293 293 293 293 292 292 292 293 293 293
239 241 244 246 250 254 258 262 268 272 273 273 272 275 278 279 281 283 285 286 287 288 289 289 290 291 291 292 292 292 292 292 292 292 293 293 293 293 293 293 293 294 294 294
240 242 244 246 250 254 258 263 267 271 272 273 274 277 278 280 282 284 286 287 288 289 289 289 290 291 291 291 291 292 292 293 293 293 293 293 293 293 293 294 295 295 295 295
239 242 244 248 251 254 258 262 266 269 273 275 276 278 280 281 283 285 286 287 288 289 289 289 290 290 291 291 291 292 293 293 294 294 294 294 295 295 295 296 297 297 297 297
239 243 245 249 252 257 260 263 266 269 273 277 279 280 282 284 285 285 286 286 287 288 289 289 290 290 291 291 292 293 293 294 295 295 295 296 296 297 297 298 298 298 298 299
239 244 247 251 255 259 262 265 267 270 273 277 281 284 284 285 286 286 286 287 287 288 289 290 290 291 291 291 292 293 294 295 296 296 297 297 298 299 299 300 300 300 301 301
242 246 251 254 256 259 263 265 267 269 273 277 282 286 286 285 285 286 287 287 288 288 289 290 290 291 291 292 292 293 295 296 297 297 298 299 300 301 301 302 302 302 303 303
246 249 252 256 259 260 262 265 268 271 275 277 281 284 285 284 285 287 287 288 288 288 289 290 290 291 291 292 293 294 295 296 298 299 300 300 301 302 303 304 304 304 304 305
249 251 254 256 259 262 263 265 268 272 275 278 281 282 284 283 285 287 287 287 287 288 288 289 290 291 291 292 293 294 296 297 299 300 301 302 303 304 304 305 305 306 306 306
251 254 256 258 261 263 264 267 270 272 275 278 280 283 283 283 284 285 286 287 287 288 289 289 290 290 291 292 294 295 297 298 300 301 302 303 304 305 306 306 307 308 308 308
252 256 259 261 262 265 267 270 271 273 276 278 281 284 283 283 284 285 286 287 287 288 288 289 290 291 292 293 294 296 298 299 301 302 303 304 305 306 307 308 308 309 309 309
253 256 260 263 265 266 270 271 273 274 276 279 281 283 283 284 284 285 286 287 287 288 288 289 290 291 292 294 295 297 299 300 301 303 304 305 306 307 308 309 310 310 311 311
254 258 261 265 268 270 271 274 275 275 276 280 282 282 283 284 285 286 286 287 287 287 288 289 290 291 293 294 296 298 300 301 303 304 306 307 308 309 310 311 311 312 312 312
257 259 262 266 269 272 274 274 276 278 279 280 282 283 284 285 286 287 287 287 287 287 288 289 290 292 294 295 297 299 301 302 304 306 307 308 309 310 311 312 312 313 313 312
258 260 264 267 271 274 277 279 279 280 282 282 283 284 285 286 287 287 288 288 288 288 289 290 292 294 295 297 299 300 302 304 305 307 308 309 310 311 312 313 313 313 313 312
259 261 264 267 270 275 278 279 280 281 283 284 285 286 287 288 287 287 288 288 288 289 290 292 294 296 297 299 300 302 303 305 306 308 309 310 311 312 313 314 314 314 313 312
261 263 266 268 271 274 276 278 280 282 283 284 286 288 289 288 287 288 288 288 289 290 292 294 295 297 298 300 302 303 304 306 307 309 310 311 312 313 314 314 314 314 313 311
263 265 267 269 271 273 275 277 279 281 283 285 287 288 289 288 288 288 289 290 291 292 293 295 296 298 300 301 303 304 305 307 308 310 311 312 313 314 314 314 314 313 312 311
264 267 269 271 272 273 275 277 279 281 283 284 286 288 288 288 288 289 291 292 292 294 295 296 298 299 301 302 304 305 306 308 309 310 311 312 313 314 314 314 314 313 312 310
265 269 270 271 271 273 275 277 279 280 282 283 285 287 287 288 289 290 291 292 293 295 296 297 299 301 302 303 305 306 308 309 310 311 312 313 314 314 314 314 313 312 311 310
Height
5825 5828 5828 5829 5830 5831 5831 5830 5830 5830 5829 5829 5828 5827 5826 5825 5825 5824 5823 5823 5822 5821 5820 5818 5817 5816 5814 5813 5811 5810 5808 5806 5804 5803 5801 5799 5797 5795 5793 5792 5790 5788 5786 5784
5820 5822 5823 5824 5825 5825 5825 5825 5825 5825 5825 5825 5824 5823 5822 5821 5820 5820 5819 5818 5817 5816 5815 5814 5812 5811 5809 5808 5806 5804 5802 5800 5798 5797 5795 5793 5791 5788 5786 5784 5782 5780 5778 5775
5814 5817 5817 5819 5819 5820 5820 5821 5821 5821 5820 5820 5819 5819 5817 5816 5816 5815 5814 5813 5812 5811 5810 5809 5807 5805 5804 5802 5800 5798 5797 5795 5792 5790 5788 5786 5784 5781 5779 5777 5774 5772 5769 5767
5807 5810 5812 5813 5814 5815 5815 5816 5816 5816 5816 5816 5815 5814 5813 5812 5811 5810 5809 5808 5807 5806 5805 5803 5802 5800 5798 5796 5794 5792 5790 5788 5786 5784 5781 5779 5777 5774 5772 5769 5766 5764 5761 5758
5802 5805 5806 5808 5809 5809 5810 5811 5811 5811 5810 5811 5810 5810 5810 5807 5806 5805 5804 5803 5802 5801 5799 5798 5796 5794 5792 5790 5788 5786 5784 5782 5779 5777 5775 5772 5769 5767 5764 5761 5758 5755 5752 5749
5796 5798 5800 5802 5803 5804 5805 5806 5806 5805 5805 5806 5806 5805 5805 5803 5801 5800 5799 5798 5797 5795 5794 5792 5790 5788 5786 5784 5782 5780 5777 5775 5773 5770 5767 5765 5762 5759 5756 5753 5749 5746 5742 5739
5790 5792 5794 5796 5797 5798 5799 5800 5801 5801 5801 5801 5800 5800 5800 5798 5796 5795 5794 5792 5791 5790 5788 5786 5784 5781 5779 5777 5775 5773 5770 5768 5765 5763 5760 5757 5754 5750 5747 5744 5740 5736 5732 5728
5784 5787 5788 5790 5792 5792 5793 5795 5796 5796 5795 5795 5794 5794 5794 5792 5790 5789 5788 5786 5785 5783 5781 5779 5777 5775 5773 5770 5768 5766 5763 5760 5757 5754 5751 5748 5745 5741 5738 5734 5730 5726 5721 5717
5778 5780 5782 5784 5785 5787 5787 5788 5789 5789 5788 5789 5789 5789 5788 5786 5784 5782 5781 5780 5778 5776 5774 5772 5770 5768 5765 5763 5760 5758 5755 5752 5749 5746 5742 5738 5735 5731 5727 5723 5718 5714 5709 5704
5771 5774 5776 5777 5779 5780 5781 5782 5782 5782 5782 5782 5783 5783 5782 5780 5778 5776 5774 5773 5771 5769 5767 5764 5762 5760 5758 5755 5752 5749 5746 5743 5740 5736 5732 5728 5724 5720 5716 5711 5706 5701 5695 5689
5765 5768 5770 5772 5773 5774 5775 5776 5776 5775 5776 5776 5776 5779 5775 5773 5771 5769 5767 5766 5764 5762 5759 5757 5754 5752 5749 5746 5743 5740 5737 5733 5730 5726 5722 5717 5713 5708 5703 5698 5692 5686 5680 5674
5759 5761 5763 5765 5766 5767 5768 5769 5769 5770 5769 5768 5768 5772 5767 5765 5763 5761 5759 5758 5756 5754 5751 5748 5746 5743 5740 5737 5734 5730 5727 5723 5719 5715 5710 5705 5700 5695 5689 5684 5677 5671 5664 5657
5752 5755 5757 5759 5761 5761 5761 5762 5762 5762 5762 5761 5761 5764 5759 5757 5754 5753 5751 5749 5747 5745 5742 5739 5736 5733 5730 5727 5724 5720 5716 5712 5708 5703 5698 5693 5687 5681 5675 5668 5662 5654 5647 5638
5746 5748 5751 5753 5752 5753 5754 5755 5755 5754 5754 5754 5755 5754 5752 5748 5746 5744 5742 5740 5738 5736 5733 5730 5727 5723 5720 5717 5713 5709 5705 5700 5695 5690 5685 5679 5673 5667 5660 5653 5645 5637 5628 5619
5738 5740 5742 5744 5744 5745 5746 5748 5747 5747 5747 5745 5746 5745 5744 5739 5737 5735 5733 5731 5729 5726 5723 5720 5716 5713 5709 5706 5702 5697 5693 5688 5683 5677 5671 5665 5658 5651 5644 5636 5628 5619 5609 5599
5730 5732 5734 5736 5736 5736 5737 5740 5739 5739 5738 5737 5736 5736 5734 5731 5728 5726 5724 5721 5719 5716 5713 5709 5706 5702 5698 5694 5690 5685 5680 5675 5670 5664 5657 5650 5643 5636 5627 5619 5610 5600 5590 5579
5723 5725 5726 5727 5728 5727 5729 5733 5731 5730 5729 5728 5726 5726 5723 5721 5719 5716 5714 5711 5708 5705 5702 5698 5695 5691 5687 5683 5678 5673 5668 5662 5656 5649 5642 5635 5627 5619 5610 5601 5591 5581 5570 5559
5715 5716 5716 5717 5719 5718 5724 5723 5722 5720 5720 5718 5717 5715 5712 5710 5708 5706 5703 5700 5697 5694 5691 5687 5683 5679 5675 5670 5666 5660 5655 5648 5642 5635 5627 5619 5611 5602 5592 5583 5572 5561 5550 5539
5706 5708 5708 5708 5708 5709 5713 5713 5711 5710 5710 5709 5706 5704 5702 5699 5697 5695 5692 5689 5686 5683 5679 5675 5671 5667 5663 5658 5653 5647 5641 5634 5627 5619 5611 5602 5593 5584 5575 5564 5553 5542 5531 5519
5697 5698 5699 5698 5698 5698 5703 5703 5701 5700 5700 5699 5696 5693 5691 5689 5687 5684 5681 5677 5674 5671 5667 5663 5659 5654 5650 5645 5639 5633 5627 5619 5612 5604 5595 5586 5576 5566 5556 5545 5534 5522 5511 5500
5687 5688 5688 5688 5687 5688 5691 5690 5689 5690 5689 5687 5685 5683 5680 5678 5676 5673 5669 5666 5662 5658 5655 5651 5646 5641 5636 5631 5625 5619 5612 5604 5596 5588 5579 5569 5558 5548 5537 5526 5515 5503 5492 5482
5677 5678 5679 5679 5678 5681 5680 5679 5678 5677 5676 5674 5672 5671 5669 5666 5663 5660 5657 5654 5650 5646 5642 5638 5634 5628 5622 5617 5611 5604 5597 5589 5581 5572 5562 5552 5541 5530 5519 5508 5497 5485 5474 5464
5667 5669 5669 5670 5671 5670 5668 5667 5666 5665 5664 5662 5661 5659 5657 5654 5651 5648 5645 5641 5638 5634 5630 5625 5620 5615 5609 5602 5595 5588 5581 5573 5564 5555 5545 5534 5524 5512 5501 5490 5479 5468 5457 5447
5656 5657 5658 5658 5659 5658 5657 5656 5655 5653 5652 5651 5649 5647 5644 5642 5639 5636 5633 5629 5625 5621 5617 5612 5607 5601 5595 5588 5580 5572 5565 5556 5547 5538 5528 5517 5507 5496 5484 5472 5461 5451 5440 5431
5645 5646 5646 5647 5647 5646 5645 5644 5643 5642 5641 5639 5637 5635 5632 5629 5627 5623 5620 5616 5612 5608 5603 5598 5593 5587 5580 5573 5565 5557 5548 5539 5530 5521 5510 5500 5489 5478 5468 5457 5445 5435 5426 5415
5635 5635 5635 5636 5636 5635 5634 5633 5632 5630 5629 5627 5625 5623 5620 5617 5614 5611 5607 5603 5599 5594 5589 5584 5578 5571 5564 5557 5549 5540 5531 5522 5512 5503 5492 5482 5471 5461 5450 5441 5432 5421 5412 5403